Wind_Speed
24 26 29 30 32 33 34 35 35 35 35 35 36 36 36 36 36 37 37 37 39 40 40 41 41 41 40 40 40 40 39 38 37 35 35 33 31 30 29 28 27 27
20 24 27 29 31 32 32 33 33 33 33 33 34 35 35 35 36 37 38 39 41 41 41 42 42 42 41 42 42 41 40 39 37 36 35 34 32 31 30 29 29 29
17 19 22 25 27 29 30 31 31 31 31 31 32 33 34 35 36 37 39 41 42 42 43 44 44 43 43 43 43 42 42 40 38 37 36 35 33 32 32 31 31 30
19 18 19 21 23 25 27 29 29 29 28 28 29 30 32 34 35 36 39 41 42 43 44 45 45 45 45 45 44 44 43 41 39 38 37 36 35 34 34 33 32 30
23 22 20 20 21 22 24 25 24 24 25 25 27 28 30 32 34 36 38 40 42 43 45 45 46 46 46 46 45 45 43 41 40 39 38 37 36 35 35 34 32 31
27 27 26 24 23 23 23 21 19 19 20 22 24 27 30 32 34 36 39 41 43 44 45 46 46 47 47 46 46 45 43 42 40 39 39 38 37 36 36 35 33 32
32 32 32 30 29 28 27 25 22 19 17 18 21 25 29 33 35 38 40 42 44 45 46 47 47 47 47 48 47 46 45 43 42 41 41 40 39 38 37 36 35 33
35 35 36 37 35 33 32 32 30 27 23 21 20 21 24 28 33 37 41 43 45 46 47 48 48 49 49 49 49 48 47 46 44 43 43 41 40 39 37 36 35 35
39 37 37 39 39 37 35 35 35 34 33 31 29 26 25 26 28 32 38 42 45 47 48 49 50 51 52 52 52 51 50 49 47 46 44 43 42 40 38 37 36 36
47 44 42 41 41 40 39 38 38 38 38 38 37 35 33 31 30 31 34 38 43 47 49 51 52 53 54 55 55 55 54 52 50 48 47 45 43 41 40 39 38 37
53 52 49 46 46 45 45 44 42 41 41 41 42 42 40 38 36 36 36 37 40 43 47 50 52 54 55 57 58 58 57 55 53 51 50 48 45 44 42 41 40 39
53 52 50 48 47 48 49 50 50 49 49 48 48 47 47 45 44 43 43 43 43 43 44 46 49 53 56 58 59 60 61 60 58 55 53 51 48 46 44 43 42 41
51 48 47 46 45 45 47 49 51 53 55 55 55 54 53 53 52 51 50 50 51 51 50 49 49 50 54 58 61 63 63 64 62 60 57 54 51 50 48 45 44 43
50 47 46 46 45 45 46 47 49 52 54 56 57 57 57 56 56 56 55 55 56 57 58 57 56 54 54 57 61 64 66 66 66 64 61 58 56 53 51 50 48 47
49 48 47 47 46 46 46 47 49 51 52 53 54 55 55 56 56 57 58 58 59 60 61 61 61 60 59 58 60 64 67 68 68 67 65 62 61 58 56 54 53 51
48 47 48 48 47 47 46 47 48 49 50 50 50 51 52 53 55 56 57 59 60 62 63 64 63 62 62 63 62 63 67 69 69 69 67 66 64 63 62 59 57 55
49 49 49 49 50 50 49 48 48 49 50 50 50 50 51 52 54 55 57 58 59 60 62 64 64 61 63 66 65 62 64 68 69 69 68 68 67 67 66 64 61 59
52 54 54 53 53 53 52 51 51 51 52 53 54 55 56 55 55 55 57 59 60 61 60 61 61 61 62 65 65 62 61 65 68 68 68 70 71 70 69 67 65 63
49 53 55 55 54 53 53 53 53 54 56 57 58 59 60 59 58 57 57 58 60 62 62 61 60 60 61 63 64 62 60 61 64 67 68 70 72 73 71 69 68 66
45 47 49 50 52 52 53 53 53 55 56 57 58 58 58 59 58 57 58 58 59 60 62 62 61 60 60 61 63 63 62 60 60 63 67 71 73 73 73 71 70 68
50 48 46 46 48 49 51 53 53 53 52 52 54 55 55 56 55 55 56 57 59 59 60 61 61 60 59 59 61 63 63 62 61 62 65 69 73 74 75 74 72 70
55 54 50 48 47 47 48 50 51 51 50 50 50 51 53 54 53 53 53 54 57 59 60 61 61 60 58 57 58 61 62 62 62 62 63 65 69 73 76 76 74 71
54 55 55 53 51 50 50 50 49 50 50 51 51 50 51 52 54 54 53 53 55 57 59 61 61 61 60 58 57 59 61 62 62 61 62 62 65 68 72 74 74 72
50 51 52 53 53 53 53 53 52 50 49 50 52 52 52 52 54 55 55 54 54 56 58 60 61 62 64 63 61 60 61 62 62 62 61 61 61 63 65 68 69 69
49 48 48 49 50 51 52 53 54 52 50 49 50 52 53 53 53 53 54 54 54 54 56 58 61 62 64 65 65 64 64 64 64 64 63 62 62 62 63 64 64 65
49 48 47 47 47 48 49 50 52 54 53 51 50 50 52 53 53 52 52 52 52 53 53 55 59 61 63 66 67 68 68 67 67 67 66 65 65 65 64 64 63 63
Wind_Direction
265 262 260 258 257 257 257 257 257 257 258 260 262 261 258 255 251 248 246 242 239 237 237 238 238 238 239 240 241 241 241 241 242 243 246 250 252 255 256 257 257 256
274 269 265 262 259 257 257 257 257 258 259 261 260 257 254 250 247 242 238 234 233 233 234 236 237 237 238 238 239 239 239 241 243 246 249 252 255 256 258 258 258 257
282 279 272 267 262 258 255 253 253 256 258 259 259 257 253 249 245 240 235 231 229 230 232 234 235 236 237 237 238 238 240 243 246 248 251 254 256 257 258 258 258 258
281 282 278 272 267 262 258 255 255 256 256 256 257 257 255 251 246 241 235 231 230 230 231 233 234 235 236 237 238 240 242 244 247 249 252 254 256 258 258 258 258 258
278 276 274 272 268 263 260 259 259 259 257 256 256 255 254 251 247 242 236 233 232 233 233 233 234 236 237 238 240 242 244 246 249 251 253 255 256 257 258 257 257 257
281 277 273 270 268 265 260 259 261 264 265 265 262 257 252 248 244 241 238 235 235 235 235 236 237 238 240 241 243 246 247 249 250 252 254 255 256 257 257 256 256 255
280 281 279 273 269 266 261 258 257 259 266 270 267 263 258 251 244 239 237 236 237 238 239 240 241 242 243 244 246 248 250 251 252 253 254 255 255 256 256 256 256 256
279 278 279 277 273 268 263 259 256 253 252 255 258 262 264 259 252 246 240 237 237 238 241 242 244 245 245 245 247 248 250 251 253 254 254 254 255 256 257 257 257 256
281 276 274 273 271 268 264 261 259 255 250 247 247 250 254 257 258 255 250 245 242 241 241 243 244 246 246 246 246 248 249 251 252 253 254 254 255 257 257 257 257 256
281 278 274 269 266 265 264 263 261 258 255 250 247 246 246 248 251 254 255 253 251 248 246 245 245 245 246 246 246 246 247 249 251 252 253 254 256 256 256 256 257 256
279 278 277 273 267 264 263 263 262 261 260 258 255 251 249 248 248 250 251 253 254 253 252 250 249 248 247 247 246 246 246 247 248 250 252 253 254 255 256 256 257 257
279 277 277 275 271 268 266 265 263 263 263 263 263 261 258 256 254 254 253 253 254 254 254 253 252 250 249 248 247 247 246 246 247 248 249 250 252 253 254 255 256 257
279 277 275 273 271 269 267 265 263 262 262 264 265 266 265 263 262 261 258 255 254 253 253 252 251 251 250 249 248 247 247 247 247 247 247 248 250 251 252 253 254 255
279 277 274 272 270 268 266 264 263 262 261 261 262 263 264 265 264 262 259 255 253 252 252 252 251 252 252 250 248 247 246 246 247 247 246 246 247 248 249 250 250 252
279 278 276 274 271 269 266 264 263 263 261 260 260 260 261 263 263 262 259 256 254 252 251 251 252 253 253 253 252 248 246 246 246 247 246 246 246 247 247 248 247 249
279 278 277 276 275 272 269 266 263 263 262 261 259 259 260 260 261 261 260 258 256 253 252 251 252 254 254 253 253 251 247 245 245 246 246 246 246 246 247 247 247 248
280 280 279 277 276 275 274 271 268 265 263 262 261 261 262 263 262 261 260 259 257 255 254 252 252 254 254 252 251 252 249 246 244 244 245 246 246 246 247 247 248 248
280 281 281 279 277 276 275 274 273 271 270 267 266 266 267 268 267 264 260 259 258 257 256 255 253 253 253 253 252 252 251 247 244 243 244 246 247 247 247 247 248 249
279 279 279 279 278 276 276 276 276 277 277 276 274 272 271 270 269 267 263 259 258 257 257 256 255 254 254 255 254 253 251 248 245 242 242 244 246 247 247 247 248 249
284 282 280 279 278 277 277 278 279 280 280 279 278 276 274 271 269 267 264 260 258 257 256 255 255 254 254 255 255 254 252 250 247 244 243 243 245 246 247 247 248 249
287 285 284 282 281 279 277 277 278 278 278 277 275 274 273 271 269 266 264 260 257 256 256 255 253 253 253 253 253 253 252 251 249 246 244 243 243 244 245 246 247 248
289 286 283 282 282 281 280 279 277 276 275 275 275 273 273 273 272 269 267 262 258 255 254 254 252 250 250 251 250 250 249 251 251 248 244 243 243 244 245 245 246 246
291 289 285 282 280 279 280 280 280 278 276 275 275 275 275 276 275 274 271 268 262 257 254 252 251 249 249 249 249 248 247 248 249 246 243 243 243 244 245 245 246 247
291 289 287 285 281 279 277 278 279 279 278 276 275 275 276 277 277 276 274 271 268 262 257 253 250 250 250 249 247 246 245 245 245 242 241 241 242 243 244 245 246 246
293 290 287 285 282 279 276 274 274 275 276 276 276 275 275 276 277 277 275 273 271 267 262 256 252 251 251 250 247 245 244 242 240 239 239 240 241 242 242 243 245 246
295 293 289 285 282 279 276 273 271 271 272 272 273 274 275 275 276 278 277 274 272 270 267 262 256 252 251 250 248 245 243 240 238 238 239 240 241 242 242 244 246 247
Height
3032 3032 3031 3032 3032 3032 3033 3033 3033 3034 3034 3035 3036 3037 3038 3038 3039 3039 3041 3043 3045 3047 3049 3050 3052 3053 3054 3055 3056 3057 3058 3060 3061 3062 3063 3064 3065 3065 3065 3066 3066 3066
3029 3028 3027 3027 3026 3026 3027 3028 3028 3028 3029 3030 3031 3031 3032 3032 3032 3033 3035 3037 3039 3041 3043 3045 3047 3048 3049 3050 3051 3052 3053 3054 3056 3057 3058 3059 3060 3061 3061 3061 3061 3061
3027 3026 3025 3023 3022 3022 3021 3021 3022 3022 3023 3024 3025 3026 3027 3027 3027 3028 3029 3031 3033 3036 3038 3039 3041 3042 3044 3045 3046 3047 3048 3050 3051 3052 3053 3054 3055 3056 3056 3057 3057 3057
3025 3024 3023 3021 3020 3019 3018 3018 3018 3018 3018 3019 3020 3021 3022 3023 3023 3024 3025 3027 3029 3031 3033 3034 3036 3037 3039 3040 3041 3042 3044 3045 3046 3047 3048 3049 3050 3051 3051 3052 3053 3053
3024 3022 3021 3019 3017 3016 3015 3015 3015 3015 3015 3014 3015 3015 3016 3018 3019 3020 3022 3023 3025 3026 3028 3029 3031 3032 3034 3035 3036 3037 3039 3040 3041 3042 3042 3043 3044 3045 3046 3047 3048 3049
3022 3021 3019 3017 3014 3013 3012 3011 3011 3012 3012 3012 3012 3012 3012 3013 3014 3016 3018 3019 3021 3022 3023 3025 3026 3027 3029 3030 3031 3032 3034 3035 3036 3037 3037 3038 3039 3039 3040 3041 3042 3043
3018 3018 3017 3015 3012 3010 3009 3008 3007 3007 3008 3008 3009 3009 3010 3010 3010 3011 3012 3014 3016 3017 3019 3020 3021 3023 3024 3025 3026 3027 3028 3029 3030 3031 3031 3032 3033 3034 3035 3036 3037 3038
3013 3013 3013 3011 3009 3007 3005 3004 3003 3003 3003 3003 3004 3005 3006 3007 3007 3008 3008 3009 3010 3012 3013 3015 3016 3017 3018 3019 3021 3022 3023 3023 3024 3025 3025 3026 3027 3028 3029 3031 3032 3032
3007 3007 3007 3006 3004 3003 3001 3000 2999 2999 2999 2998 2999 2999 3000 3001 3002 3004 3004 3005 3005 3006 3007 3008 3010 3011 3013 3014 3015 3016 3017 3018 3018 3019 3020 3020 3021 3022 3024 3025 3026 3027
3000 3000 3000 2999 2998 2997 2996 2995 2994 2994 2994 2993 2993 2993 2994 2995 2996 2997 2998 2999 3000 3001 3001 3002 3004 3005 3006 3007 3009 3010 3010 3011 3012 3013 3013 3014 3015 3016 3017 3018 3019 3020
2992 2992 2992 2991 2991 2990 2989 2989 2989 2989 2989 2988 2988 2988 2988 2989 2989 2990 2991 2992 2994 2995 2996 2997 2998 2999 3000 3001 3002 3003 3004 3004 3005 3006 3007 3008 3009 3010 3011 3012 3013 3014
2984 2984 2983 2983 2983 2983 2982 2982 2983 2983 2983 2983 2983 2983 2983 2983 2984 2984 2985 2986 2987 2988 2990 2991 2991 2992 2993 2994 2995 2996 2997 2997 2998 2999 3000 3001 3002 3003 3004 3006 3007 3008
2975 2976 2975 2974 2974 2974 2975 2975 2976 2976 2976 2976 2976 2976 2977 2978 2978 2978 2979 2979 2980 2981 2982 2983 2983 2984 2985 2986 2987 2988 2989 2989 2990 2991 2993 2994 2996 2997 2998 2999 3000 3001
2967 2967 2967 2967 2966 2966 2966 2967 2968 2968 2968 2968 2969 2969 2970 2970 2971 2971 2972 2972 2973 2974 2975 2975 2975 2976 2977 2978 2979 2979 2980 2981 2982 2983 2985 2987 2989 2990 2991 2992 2993 2993
2960 2960 2959 2959 2958 2958 2959 2959 2959 2960 2960 2960 2961 2961 2962 2962 2963 2963 2964 2965 2965 2965 2966 2966 2967 2969 2970 2971 2971 2971 2972 2973 2973 2975 2977 2979 2981 2982 2983 2984 2985 2985
2954 2953 2952 2951 2950 2950 2951 2951 2951 2951 2952 2952 2952 2953 2954 2954 2954 2955 2956 2956 2957 2956 2956 2957 2958 2960 2961 2961 2962 2963 2963 2964 2965 2966 2967 2969 2972 2974 2975 2975 2976 2978
2947 2947 2946 2945 2944 2943 2943 2943 2944 2943 2943 2943 2944 2945 2945 2945 2946 2947 2947 2947 2947 2947 2947 2947 2949 2951 2951 2951 2952 2953 2954 2955 2956 2957 2959 2960 2962 2964 2965 2967 2969 2970
2941 2940 2939 2939 2938 2937 2936 2936 2936 2935 2935 2935 2935 2935 2935 2936 2937 2937 2937 2938 2938 2938 2939 2940 2941 2942 2942 2942 2943 2944 2944 2945 2946 2948 2950 2952 2953 2955 2956 2958 2960 2961
2936 2934 2933 2932 2931 2929 2928 2928 2927 2927 2926 2926 2925 2925 2925 2926 2926 2926 2927 2928 2928 2929 2930 2931 2932 2933 2934 2934 2934 2935 2935 2935 2936 2939 2941 2943 2945 2946 2947 2948 2950 2952
2930 2928 2927 2925 2923 2922 2920 2919 2918 2918 2917 2916 2916 2916 2915 2915 2915 2915 2916 2917 2917 2918 2919 2920 2922 2923 2924 2924 2925 2926 2927 2927 2928 2929 2932 2934 2936 2937 2938 2939 2941 2943
2922 2921 2920 2918 2916 2913 2912 2910 2909 2908 2908 2907 2907 2906 2905 2905 2905 2905 2905 2906 2906 2907 2908 2910 2912 2913 2913 2914 2915 2917 2918 2918 2918 2919 2921 2924 2926 2927 2928 2930 2931 2934
2911 2911 2910 2909 2907 2905 2903 2902 2901 2900 2899 2898 2897 2897 2896 2896 2895 2895 2895 2895 2896 2896 2897 2900 2902 2902 2902 2903 2905 2906 2907 2908 2909 2910 2912 2914 2916 2917 2918 2920 2922 2924
2900 2899 2899 2899 2898 2897 2895 2894 2893 2892 2892 2890 2889 2888 2888 2887 2886 2886 2886 2886 2886 2887 2887 2890 2892 2892 2892 2893 2895 2896 2897 2897 2899 2900 2902 2904 2906 2908 2909 2911 2913 2916
2891 2889 2888 2888 2888 2887 2887 2886 2886 2885 2883 2882 2881 2880 2880 2879 2877 2877 2877 2877 2877 2877 2878 2879 2882 2883 2883 2883 2884 2885 2886 2887 2889 2891 2893 2895 2897 2899 2901 2903 2905 2907
2882 2880 2879 2878 2877 2877 2877 2877 2877 2876 2875 2874 2873 2872 2871 2871 2870 2869 2868 2868 2868 2868 2868 2870 2871 2873 2873 2873 2874 2874 2875 2877 2878 2880 2883 2885 2887 2889 2891 2894 2896 2899
2874 2872 2870 2869 2868 2867 2867 2867 2867 2866 2866 2865 2864 2863 2863 2862 2862 2861 2860 2861 2860 2860 2860 2861 2861 2862 2863 2863 2863 2863 2864 2866 2868 2870 2873 2875 2877 2879 2882 2884 2887 2889